Temp
-15 -15 -15 -15 -15 -15 -15 -15 -15 -15 -16 -16 -16 -16 -17 -17 -17 -17 -17 -17 -17 -17 -17 -17 -17 -17 -17 -17 -17 -17 -17 -18 -18 -18 -17 -17 -18 -18 -18 -18 -18 -17 -17
-15 -16 -16 -17 -17 -16 -15 -16 -16 -15 -16 -16 -17 -17 -17 -17 -17 -17 -18 -17 -17 -17 -17 -18 -17 -18 -18 -18 -18 -18 -19 -19 -19 -19 -19 -18 -18 -19 -19 -19 -19 -19 -19
-15 -16 -16 -16 -16 -17 -17 -17 -17 -17 -17 -17 -17 -17 -17 -18 -18 -18 -17 -17 -17 -18 -18 -18 -18 -18 -19 -19 -19 -19 -19 -20 -20 -20 -20 -20 -20 -20 -20 -21 -21 -20 -20
-16 -15 -16 -16 -16 -17 -17 -17 -17 -17 -17 -17 -17 -18 -18 -18 -18 -18 -18 -18 -18 -18 -19 -19 -19 -19 -19 -19 -19 -20 -20 -20 -21 -21 -22 -22 -22 -21 -20 -21 -21 -21 -21
-16 -16 -16 -17 -17 -17 -17 -17 -17 -17 -17 -18 -18 -18 -18 -18 -18 -18 -18 -19 -19 -19 -19 -19 -19 -19 -19 -20 -20 -21 -22 -22 -23 -23 -23 -23 -24 -24 -23 -23 -22 -22 -22
-16 -16 -16 -16 -17 -17 -17 -17 -18 -18 -18 -18 -18 -18 -18 -18 -18 -18 -18 -18 -18 -19 -19 -19 -19 -20 -20 -21 -22 -22 -23 -23 -24 -24 -25 -25 -26 -26 -26 -26 -25 -25 -24
-16 -17 -16 -17 -18 -17 -18 -18 -18 -18 -18 -18 -19 -18 -18 -18 -17 -18 -18 -18 -18 -18 -19 -20 -20 -21 -22 -22 -23 -23 -23 -24 -25 -26 -27 -28 -28 -29 -29 -29 -28 -28 -28
-16 -17 -17 -17 -18 -18 -18 -17 -17 -17 -17 -17 -17 -17 -17 -17 -17 -18 -18 -18 -19 -19 -20 -21 -22 -22 -23 -22 -23 -24 -24 -26 -29 -29 -30 -30 -31 -31 -31 -31 -31 -30 -30
-17 -17 -17 -17 -17 -17 -18 -18 -18 -18 -18 -17 -17 -17 -17 -18 -18 -18 -19 -20 -20 -20 -21 -21 -22 -23 -24 -24 -25 -27 -29 -30 -30 -31 -31 -31 -32 -32 -32 -32 -32 -32 -31
-17 -17 -17 -17 -17 -17 -18 -18 -18 -18 -18 -18 -18 -18 -18 -18 -18 -19 -19 -20 -20 -20 -21 -22 -23 -24 -25 -27 -30 -30 -31 -31 -32 -32 -31 -31 -32 -32 -32 -32 -32 -32 -32
-16 -16 -17 -17 -18 -18 -18 -18 -18 -18 -18 -18 -18 -18 -18 -18 -19 -19 -19 -20 -21 -22 -23 -23 -24 -26 -28 -30 -31 -32 -32 -32 -32 -32 -32 -32 -32 -32 -32 -32 -32 -32 -32
-16 -16 -17 -18 -19 -19 -19 -19 -19 -19 -19 -19 -18 -18 -19 -19 -19 -20 -20 -21 -22 -23 -24 -24 -27 -29 -30 -31 -32 -33 -32 -33 -32 -33 -32 -32 -32 -32 -32 -32 -32 -33 -33
-17 -17 -17 -18 -19 -19 -19 -19 -19 -19 -19 -19 -19 -19 -19 -19 -20 -20 -21 -22 -23 -24 -24 -27 -29 -30 -31 -33 -33 -33 -33 -32 -33 -32 -32 -33 -32 -33 -33 -33 -33 -34 -34
-17 -17 -18 -18 -18 -19 -19 -19 -19 -19 -19 -19 -19 -19 -19 -20 -20 -21 -22 -23 -24 -24 -26 -29 -31 -31 -32 -34 -33 -33 -33 -33 -33 -33 -32 -32 -33 -33 -34 -34 -34 -34 -34
-17 -18 -18 -18 -19 -20 -20 -20 -20 -19 -19 -19 -19 -20 -20 -20 -21 -23 -23 -24 -25 -27 -29 -30 -31 -32 -33 -33 -33 -33 -33 -33 -33 -32 -32 -33 -33 -34 -34 -34 -34 -34 -35
-18 -18 -19 -19 -20 -20 -20 -20 -20 -20 -20 -20 -20 -20 -21 -22 -23 -23 -24 -25 -27 -29 -31 -31 -32 -32 -33 -33 -33 -33 -33 -33 -33 -33 -33 -33 -34 -34 -34 -34 -34 -35 -35
-18 -18 -19 -19 -20 -20 -20 -20 -20 -20 -20 -20 -20 -21 -22 -23 -23 -24 -25 -27 -29 -31 -32 -32 -32 -33 -33 -33 -33 -33 -33 -33 -33 -33 -33 -33 -34 -34 -34 -35 -35 -36 -36
-19 -19 -19 -19 -20 -20 -20 -20 -20 -20 -20 -20 -21 -22 -23 -23 -24 -26 -27 -29 -31 -32 -32 -33 -33 -32 -33 -33 -33 -33 -33 -33 -33 -33 -33 -34 -34 -34 -34 -35 -35 -36 -36
-19 -19 -19 -20 -20 -20 -20 -20 -20 -20 -21 -21 -23 -23 -23 -24 -26 -27 -29 -30 -31 -32 -33 -33 -32 -32 -33 -33 -33 -33 -33 -33 -33 -33 -33 -34 -34 -34 -34 -35 -35 -36 -37
-19 -19 -20 -20 -20 -20 -20 -20 -20 -21 -21 -23 -23 -24 -24 -26 -27 -28 -30 -31 -32 -32 -33 -32 -32 -32 -33 -33 -33 -33 -33 -33 -33 -34 -34 -34 -34 -34 -34 -34 -35 -36 -36
-19 -20 -20 -20 -20 -20 -20 -21 -21 -22 -23 -23 -24 -25 -26 -27 -28 -30 -31 -31 -32 -33 -33 -32 -32 -32 -33 -33 -33 -33 -33 -33 -33 -33 -33 -33 -33 -34 -34 -34 -35 -35 -35
-20 -20 -21 -21 -21 -21 -21 -21 -22 -23 -23 -24 -25 -26 -27 -28 -29 -30 -31 -32 -33 -33 -33 -33 -32 -33 -33 -33 -33 -33 -33 -33 -33 -33 -33 -33 -33 -33 -34 -34 -34 -34 -34
-20 -21 -21 -21 -21 -21 -22 -22 -23 -24 -24 -25 -26 -27 -28 -29 -30 -31 -32 -32 -33 -33 -33 -33 -33 -33 -33 -33 -33 -33 -33 -33 -33 -33 -33 -33 -33 -33 -33 -34 -34 -33 -33
-20 -21 -21 -21 -22 -22 -23 -23 -24 -24 -25 -26 -28 -28 -29 -30 -31 -31 -32 -33 -33 -33 -33 -33 -33 -33 -33 -33 -33 -33 -33 -33 -33 -33 -33 -33 -33 -33 -33 -33 -33 -33 -33
-21 -21 -22 -22 -22 -23 -24 -24 -24 -25 -26 -28 -29 -30 -30 -31 -32 -32 -33 -33 -34 -34 -33 -33 -33 -33 -33 -33 -33 -33 -33 -33 -33 -33 -34 -34 -33 -33 -33 -33 -33 -33 -33
-21 -22 -23 -23 -23 -24 -24 -24 -25 -26 -28 -28 -29 -30 -31 -31 -32 -33 -33 -34 -34 -34 -34 -34 -34 -34 -34 -34 -33 -33 -33 -33 -33 -33 -34 -34 -33 -33 -33 -33 -33 -33 -33
Height
5811 5810 5808 5807 5804 5802 5801 5797 5794 5792 5789 5785 5781 5776 5772 5768 5763 5759 5753 5748 5743 5738 5734 5728 5722 5716 5712 5706 5701 5697 5693 5689 5684 5679 5675 5669 5663 5659 5655 5653 5651 5649 5648
5806 5804 5803 5801 5800 5798 5796 5793 5788 5784 5779 5776 5773 5769 5763 5758 5754 5748 5743 5737 5732 5727 5722 5716 5709 5702 5696 5689 5683 5678 5673 5668 5661 5655 5651 5648 5646 5639 5632 5628 5626 5625 5624
5801 5800 5798 5797 5795 5792 5790 5787 5783 5777 5772 5768 5764 5760 5754 5748 5743 5738 5732 5727 5721 5715 5708 5701 5694 5686 5679 5673 5666 5658 5650 5643 5637 5628 5621 5617 5615 5611 5611 5607 5602 5600 5598
5797 5796 5794 5792 5789 5786 5783 5779 5773 5769 5763 5759 5754 5750 5745 5739 5733 5727 5721 5714 5707 5701 5694 5686 5679 5672 5664 5656 5648 5639 5630 5622 5613 5607 5598 5590 5582 5578 5579 5578 5577 5574 5571
5792 5791 5789 5785 5781 5779 5775 5769 5764 5760 5756 5752 5747 5741 5736 5730 5724 5718 5712 5705 5698 5692 5684 5675 5664 5653 5643 5633 5623 5613 5603 5593 5585 5577 5571 5564 5557 5547 5539 5542 5545 5545 5543
5789 5788 5783 5778 5775 5771 5766 5759 5755 5751 5748 5743 5738 5733 5728 5723 5718 5711 5704 5696 5687 5678 5664 5648 5639 5629 5617 5608 5598 5586 5575 5566 5556 5546 5537 5529 5523 5518 5510 5502 5505 5505 5512
5783 5780 5776 5771 5767 5764 5761 5756 5751 5746 5741 5737 5732 5726 5721 5715 5707 5697 5686 5675 5663 5652 5642 5631 5619 5607 5596 5585 5574 5564 5554 5543 5531 5519 5510 5501 5491 5484 5480 5473 5469 5469 5477
5777 5775 5771 5766 5761 5758 5754 5749 5744 5739 5734 5727 5721 5715 5707 5697 5688 5678 5668 5659 5648 5635 5621 5607 5592 5579 5565 5556 5545 5533 5523 5513 5504 5495 5487 5479 5468 5460 5453 5448 5444 5446 5448
5770 5767 5762 5757 5753 5750 5747 5742 5736 5731 5723 5716 5708 5700 5692 5683 5674 5664 5653 5640 5626 5612 5601 5587 5573 5560 5543 5530 5520 5507 5498 5492 5484 5476 5469 5462 5452 5445 5439 5434 5429 5426 5429
5762 5757 5752 5747 5744 5740 5734 5729 5723 5715 5708 5702 5694 5686 5676 5666 5657 5646 5634 5621 5608 5595 5582 5570 5554 5538 5522 5509 5496 5489 5481 5474 5467 5460 5453 5445 5439 5433 5428 5423 5420 5416 5413
5752 5746 5741 5737 5733 5728 5722 5716 5710 5703 5696 5688 5680 5671 5662 5653 5642 5631 5618 5605 5592 5576 5560 5545 5529 5513 5500 5489 5479 5473 5466 5458 5452 5445 5437 5431 5427 5422 5416 5410 5406 5402 5398
5745 5739 5733 5728 5724 5720 5714 5707 5699 5692 5684 5675 5667 5658 5648 5638 5627 5614 5601 5587 5572 5556 5539 5523 5506 5491 5480 5471 5464 5458 5451 5445 5438 5431 5424 5418 5413 5407 5400 5394 5389 5384 5381
5738 5732 5727 5722 5717 5711 5703 5696 5689 5682 5674 5665 5656 5647 5636 5624 5612 5596 5581 5566 5549 5532 5517 5499 5484 5472 5463 5456 5451 5446 5439 5432 5426 5419 5411 5404 5397 5391 5384 5377 5372 5367 5364
5732 5727 5721 5715 5708 5701 5694 5687 5679 5671 5662 5653 5643 5631 5619 5607 5592 5576 5560 5543 5526 5509 5493 5479 5467 5457 5449 5445 5441 5434 5428 5421 5415 5406 5397 5389 5382 5376 5370 5364 5359 5353 5348
5724 5718 5712 5705 5698 5692 5684 5676 5668 5659 5649 5638 5626 5615 5602 5587 5572 5556 5538 5521 5504 5489 5476 5465 5454 5446 5440 5437 5432 5426 5419 5412 5404 5394 5385 5377 5370 5363 5356 5350 5344 5338 5333
5713 5707 5701 5695 5688 5680 5672 5664 5654 5644 5633 5622 5610 5597 5582 5567 5552 5536 5518 5502 5486 5473 5462 5453 5446 5439 5435 5431 5424 5418 5411 5402 5392 5383 5375 5367 5360 5352 5344 5335 5327 5321 5316
5704 5698 5691 5683 5675 5667 5659 5649 5639 5629 5618 5606 5593 5579 5564 5548 5532 5516 5499 5483 5470 5459 5452 5446 5440 5435 5430 5424 5418 5410 5402 5393 5382 5373 5365 5359 5351 5342 5332 5322 5313 5306 5301
5692 5686 5678 5670 5663 5654 5645 5637 5627 5616 5604 5590 5576 5560 5547 5530 5512 5496 5482 5469 5458 5449 5443 5438 5433 5429 5424 5418 5411 5403 5394 5384 5374 5365 5358 5351 5342 5332 5321 5311 5302 5295 5289
5681 5673 5666 5658 5650 5642 5633 5623 5612 5600 5586 5572 5557 5542 5527 5513 5496 5481 5467 5456 5448 5442 5436 5432 5427 5422 5416 5410 5403 5396 5387 5377 5366 5357 5351 5344 5335 5326 5315 5304 5295 5287 5281
5668 5661 5653 5645 5638 5629 5618 5607 5595 5583 5569 5555 5540 5525 5510 5495 5481 5467 5455 5445 5439 5433 5429 5424 5419 5414 5409 5403 5396 5388 5380 5371 5361 5352 5345 5339 5331 5322 5311 5300 5291 5282 5275
5656 5648 5641 5633 5624 5614 5603 5591 5578 5565 5551 5538 5523 5508 5494 5480 5467 5454 5444 5436 5430 5426 5422 5417 5412 5407 5402 5395 5388 5380 5373 5364 5355 5348 5342 5336 5328 5319 5308 5298 5288 5280 5273
5644 5636 5628 5619 5608 5598 5587 5575 5562 5548 5534 5520 5505 5492 5478 5465 5453 5443 5434 5428 5423 5419 5415 5410 5404 5399 5394 5387 5381 5373 5366 5358 5350 5344 5338 5333 5326 5318 5308 5298 5290 5282 5275
5630 5622 5613 5603 5592 5580 5568 5558 5545 5532 5519 5504 5489 5476 5464 5452 5441 5432 5425 5420 5416 5412 5408 5403 5397 5392 5386 5380 5374 5367 5359 5351 5345 5339 5335 5330 5325 5318 5309 5301 5293 5287 5281
5615 5607 5598 5588 5577 5565 5552 5540 5530 5517 5502 5488 5474 5461 5450 5440 5430 5423 5418 5413 5409 5405 5401 5396 5391 5386 5380 5374 5369 5362 5354 5346 5340 5335 5331 5328 5324 5318 5311 5305 5298 5292 5287
5601 5592 5583 5573 5563 5551 5538 5526 5515 5501 5487 5473 5460 5448 5439 5430 5422 5416 5411 5406 5402 5398 5394 5389 5385 5380 5375 5369 5363 5356 5349 5342 5336 5331 5327 5325 5321 5318 5313 5307 5302 5297 5293
5588 5578 5568 5558 5547 5535 5524 5511 5498 5484 5472 5460 5448 5437 5428 5421 5415 5409 5405 5400 5397 5393 5389 5384 5380 5375 5369 5363 5357 5350 5343 5337 5332 5328 5324 5321 5319 5316 5313 5309 5305 5301 5298
Wind_Speed
16 20 19 20 21 21 26 33 36 39 40 43 42 42 37 43 41 47 43 46 48 48 49 52 56 59 61 62 63 64 65 66 68 71 72 73 74 76 77 77 76 76 77
20 21 18 21 21 27 29 33 42 45 45 44 43 42 42 45 47 47 48 49 51 54 57 60 64 67 69 70 72 74 75 75 77 78 78 78 77 77 79 81 81 81 80
21 18 18 22 30 33 35 36 37 41 45 45 44 45 46 47 47 48 49 52 56 60 64 67 70 73 76 77 78 81 82 83 82 82 82 81 81 80 77 80 83 84 84
20 22 29 31 35 38 41 43 43 48 48 46 45 45 45 45 47 50 54 58 63 66 70 73 76 78 81 81 82 84 86 85 85 83 82 83 86 87 91 88 83 84 87
20 31 35 36 38 38 41 45 47 43 40 40 40 41 43 46 50 54 59 62 66 69 72 76 79 82 84 87 88 87 85 85 85 86 87 88 89 92 94 91 90 89 89
29 32 32 39 35 41 44 45 42 41 39 39 40 41 44 49 53 58 62 66 68 72 79 86 86 88 90 89 89 89 90 90 91 91 90 92 92 93 94 96 95 95 95
34 32 29 41 44 41 38 36 35 33 35 38 41 44 49 54 60 64 69 74 79 84 86 88 90 90 90 90 90 91 92 94 92 91 89 86 84 83 82 85 85 87 86
28 34 44 44 36 36 32 30 33 37 41 44 47 52 58 65 68 72 76 80 83 87 90 92 92 93 95 98 97 98 97 90 87 85 73 74 78 79 67 63 64 62 60
33 38 33 33 38 32 31 36 39 42 45 49 55 60 65 67 71 75 80 84 88 91 93 95 95 96 96 99 96 90 84 85 80 68 71 79 53 50 48 48 48 49 47
29 32 35 37 36 37 42 45 48 51 53 57 61 65 68 72 77 81 84 87 90 94 94 95 94 96 95 87 79 80 74 74 68 72 74 72 54 54 52 50 49 50 51
32 36 40 42 44 46 49 52 53 55 58 62 66 68 72 77 81 85 88 91 93 94 94 95 96 91 83 76 72 74 71 62 68 74 59 50 53 54 54 55 56 56 57
34 38 42 45 47 50 50 53 55 59 63 66 68 71 76 80 84 87 90 91 93 94 96 98 88 77 73 67 63 58 55 60 71 51 51 52 54 56 58 57 56 56 56
35 39 43 46 47 48 51 54 59 62 65 67 70 75 79 81 85 89 91 93 95 96 98 90 77 67 61 57 55 61 64 54 50 51 52 55 57 54 50 49 49 50 51
36 39 42 45 48 50 53 58 62 65 66 70 74 77 81 84 89 91 92 96 98 101 94 75 61 56 51 46 49 42 42 48 49 53 54 53 49 45 41 43 44 44 44
39 42 44 47 49 53 57 60 63 64 69 74 77 81 85 88 89 91 94 96 98 91 73 56 50 45 38 36 37 43 46 47 53 51 52 47 43 45 46 46 47 47 47
44 46 48 50 53 55 58 61 63 68 72 75 80 85 87 88 90 94 95 97 89 72 54 44 39 31 28 33 40 44 46 50 52 50 48 43 44 46 48 49 48 47 45
47 49 51 53 54 56 59 62 67 71 74 79 84 85 85 89 94 94 94 86 70 53 42 36 32 33 33 36 42 47 46 52 50 48 44 41 44 46 47 46 43 42 40
50 52 53 55 55 56 61 65 69 72 78 82 83 83 88 92 92 92 86 72 56 44 37 35 35 35 36 39 43 47 47 53 47 44 39 40 41 43 44 42 39 36 36
52 56 56 53 55 59 64 68 71 76 81 81 81 87 92 92 90 85 75 59 48 38 34 35 37 36 37 40 44 46 46 48 42 39 37 38 38 41 43 38 35 32 30
56 57 54 55 59 63 68 72 76 78 79 80 86 89 92 89 86 76 62 50 42 34 33 36 37 36 37 40 44 44 47 42 39 34 34 34 36 39 40 37 32 28 23
58 56 56 59 63 68 72 75 77 78 79 84 88 91 89 85 76 66 54 43 35 32 34 36 36 35 36 40 43 42 47 39 35 29 30 30 34 37 37 36 32 27 20
58 58 60 64 69 71 74 77 78 78 82 86 89 87 83 76 68 58 45 37 32 31 32 35 35 36 37 40 39 42 45 37 33 27 26 26 30 34 34 33 31 26 19
60 62 65 69 71 75 78 77 77 80 84 89 86 82 77 67 60 50 38 34 31 31 33 35 37 36 37 40 38 42 43 38 33 25 24 23 26 30 29 28 27 24 18
62 65 67 70 74 77 77 77 79 84 88 85 79 75 67 60 52 41 34 32 32 32 33 35 36 35 37 37 38 40 41 39 31 26 22 22 22 26 26 23 23 21 17
65 67 70 73 76 75 75 78 83 87 84 78 74 66 60 52 43 35 32 31 31 31 31 33 33 34 35 35 37 39 40 38 29 26 21 21 19 21 23 20 18 18 17
68 71 74 77 75 73 76 83 87 84 79 74 66 58 52 43 36 31 30 29 28 29 30 31 31 33 34 36 38 39 38 36 28 25 21 19 18 17 18 19 14 13 13
Wind_Direction
307 310 311 317 310 315 320 315 314 311 308 308 307 306 297 298 296 297 296 299 302 302 303 303 303 304 303 302 304 303 301 299 299 297 295 293 291 288 285 281 279 277 276
299 307 308 303 308 308 311 311 313 306 303 303 303 296 294 295 298 299 299 300 302 303 305 305 304 304 304 304 303 301 300 298 297 296 294 292 287 283 282 280 278 276 274
296 294 293 296 303 309 312 308 303 301 298 295 295 296 298 299 301 301 302 302 304 306 307 307 306 306 304 302 301 299 300 299 296 293 292 291 289 287 280 276 275 274 273
296 294 308 306 289 300 303 304 299 297 295 297 298 298 300 304 304 303 306 307 308 307 307 307 304 302 299 297 297 299 300 300 298 296 293 290 289 287 286 283 276 272 270
294 303 301 296 295 295 298 300 301 301 299 299 302 302 303 302 303 305 305 302 303 303 301 300 300 300 301 302 302 302 301 298 294 291 288 284 282 280 277 274 271 268 265
296 292 297 290 294 303 303 307 305 305 306 303 301 300 299 298 299 299 300 300 302 303 306 308 307 306 305 305 303 302 300 297 294 290 286 284 282 279 277 275 272 268 263
296 290 289 305 305 298 298 297 294 295 292 291 291 292 295 298 301 305 308 310 311 310 309 307 307 306 305 303 302 300 297 296 293 291 290 290 284 283 284 281 277 274 271
295 293 301 296 290 295 294 289 289 289 291 294 294 298 305 310 311 311 311 310 309 309 310 310 310 308 306 305 303 301 298 296 294 294 295 303 294 290 291 287 282 279 278
297 296 289 287 292 292 295 294 298 300 297 298 305 310 310 310 310 311 312 312 312 312 311 311 309 307 304 303 301 298 295 295 298 290 294 303 301 302 299 294 290 287 283
298 297 289 292 299 302 304 307 310 310 308 309 310 310 312 312 312 313 312 312 312 311 310 308 307 306 303 300 295 294 295 298 294 297 302 305 301 301 299 295 290 287 284
309 307 306 307 309 309 310 311 309 309 309 309 311 311 311 313 312 312 312 311 310 310 310 310 308 305 302 300 289 294 297 299 300 303 301 296 297 295 293 292 289 286 282
313 311 310 307 307 307 307 307 308 308 309 311 310 311 313 312 312 311 310 310 311 312 311 310 309 304 300 297 294 293 299 304 305 302 301 300 299 298 296 293 289 285 281
313 310 310 309 306 304 305 306 306 308 310 311 312 312 311 311 310 311 312 313 313 313 313 313 310 304 300 297 292 295 302 302 305 305 305 304 303 302 299 296 292 287 281
308 306 304 301 301 302 303 303 306 309 310 310 311 311 311 312 312 312 313 315 315 315 315 313 309 304 301 300 305 306 308 311 310 310 309 308 307 306 302 297 295 292 289
309 307 307 304 304 302 301 304 307 308 310 311 312 313 314 313 313 315 316 317 316 316 315 313 309 309 310 309 313 315 314 313 314 314 314 313 312 307 304 301 296 292 288
310 308 308 303 300 301 303 306 308 311 312 312 314 315 313 314 317 318 317 317 317 317 316 315 312 317 315 314 318 317 317 319 320 319 316 314 311 310 308 305 300 295 291
308 309 309 306 303 305 307 308 310 311 312 313 314 314 316 318 318 318 318 319 318 317 314 316 318 316 312 314 317 320 319 323 322 319 317 315 316 316 314 311 304 297 294
310 310 307 304 308 308 309 310 310 312 314 314 315 317 319 319 318 319 320 319 317 314 311 312 313 313 312 313 314 319 322 325 322 319 318 321 324 326 325 322 313 302 298
306 307 310 309 308 309 310 311 314 315 316 316 317 319 320 320 319 321 320 317 314 311 307 309 310 312 308 312 315 320 324 325 322 321 321 326 331 331 331 328 326 315 307
308 312 309 309 309 311 313 314 315 317 317 317 320 320 320 319 321 320 319 314 313 309 308 313 313 307 307 312 318 320 327 327 325 322 323 328 333 334 336 337 336 330 319
311 310 308 308 310 313 314 316 318 318 318 319 319 319 319 321 321 320 317 312 311 308 306 313 313 308 310 314 320 323 328 329 327 321 322 330 335 339 342 345 346 347 341
310 308 308 311 313 315 317 319 318 318 319 320 318 318 321 321 320 319 314 310 308 308 311 315 314 313 315 318 322 325 328 330 331 321 322 331 338 343 347 351 354 356 2
310 310 312 313 316 318 319 319 318 318 320 319 317 320 321 320 319 318 311 309 308 306 309 313 316 317 317 320 322 326 329 332 333 321 322 328 336 347 352 356 358 2 11
311 312 314 315 317 318 318 317 318 320 319 317 319 320 320 319 318 316 310 309 310 308 309 314 317 317 317 321 323 326 330 332 331 326 320 322 331 345 352 359 7 10 13
311 312 314 315 316 317 317 318 320 318 317 319 319 320 319 320 317 313 309 309 310 311 313 315 315 316 319 321 323 327 329 330 326 326 315 315 321 336 352 355 10 18 25
311 313 314 315 316 317 318 319 317 316 318 319 320 319 321 319 315 312 310 310 313 314 314 313 314 317 320 323 326 327 327 328 324 326 314 306 312 324 340 350 359 13 26